Change the Weather History Date:

Monday, November 4, 2013

  Actual Average (KTVC) Record (KTVC)
Temperature  
Mean Temperature 45 °F 42 °F  
Max Temperature 52 °F 49 °F 74 °F (2008)
Min Temperature 38 °F 34 °F 13 °F (1966)
Degree Days  
Heating Degree Days 20 23  
Month to date heating degree days 91  
Since 1 July heating degree days 878  
Moisture  
Dew Point 31 °F    
Average Humidity 60    
Maximum Humidity 78    
Minimum Humidity 44    
Precipitation  
Precipitation 0.00 in 0.09 in 1.34 in (2003)
Month to date precipitation 0.38  
Year to date precipitation 28.24  
Sea Level Pressure  
Sea Level Pressure 30.22 in    
Wind  
Wind Speed 14 mph (SSE)    
Max Wind Speed 21 mph    
Max Gust Speed 31 mph    
Visibility 10 miles    
Events      
T = Trace of Precipitation, MM = Missing Value Source: NWS Daily Summary

Daily Weather History Graph

Daily Weather History Graph

Search for Another Location

Airport or City:

Trip Planner

Search our weather history database for the weather conditions in past years. The results will help you decide how hot, cold, wet, or windy it might be!

Date:

Astronomy

Nov. 04, 2013 Rise Set
Actual Time 7:26 AM EST 5:29 PM EST
Civil Twilight 6:56 AM EST 5:59 PM EST
Nautical Twilight 6:21 AM EST 6:34 PM EST
Astronomical Twilight 5:47 AM EST 7:08 PM EST
Moon 8:39 AM EST (11/4) 6:30 PM EST (11/4)
Length of Visible Light 11h 03m
Length of Day
10h 02m
New Moon, 2% of the Moon is Illuminated
Nov 4
New Moon
Nov 10
First Quarter
Nov 17
Full
Nov 25
Last Quarter
Dec 2
New

Hourly Weather History & Observations

Time (EST) Temp. Windchill Dew Point Humidity Pressure Visibility Wind Dir Wind Speed Gust Speed Precip Events Conditions
12:12 AM 40.3 °F 33.4 °F 31.1 °F 70% 30.33 in 10.0 mi SE 11.5 mph 19.6 mph N/A   Clear
12:32 AM 40.1 °F 32.4 °F 31.1 °F 70% 30.33 in 10.0 mi SE 13.8 mph 20.7 mph N/A   Clear
12:52 AM 39.9 °F 33.4 °F 31.1 °F 71% 30.32 in 10.0 mi SE 10.4 mph 16.1 mph N/A   Clear
1:12 AM 40.1 °F 34.1 °F 31.1 °F 70% 30.32 in 10.0 mi SE 9.2 mph 18.4 mph N/A   Clear
1:32 AM 40.1 °F 32.4 °F 31.1 °F 70% 30.33 in 10.0 mi SE 13.8 mph - N/A   Clear
1:52 AM 39.9 °F 33.9 °F 31.1 °F 71% 30.33 in 10.0 mi SSE 9.2 mph 18.4 mph N/A   Clear
2:13 AM 39.6 °F 32.5 °F 31.1 °F 72% 30.34 in 10.0 mi SSE 11.5 mph - N/A   Clear
2:33 AM 39.4 °F 31.8 °F 31.1 °F 72% 30.34 in 10.0 mi SSE 12.7 mph 19.6 mph N/A   Clear
2:53 AM 39.2 °F 30.8 °F 31.3 °F 73% 30.33 in 10.0 mi SSE 15.0 mph 18.4 mph N/A   Clear
3:13 AM 39.2 °F 32.0 °F 31.5 °F 74% 30.33 in 10.0 mi SE 11.5 mph 21.9 mph N/A   Clear
3:35 AM 39.2 °F 31.2 °F 31.6 °F 74% 30.32 in 10.0 mi SE 13.8 mph 19.6 mph N/A   Clear
3:50 AM 38.8 °F 31.2 °F 31.6 °F 75% 30.32 in 10.0 mi SE 12.7 mph 19.6 mph N/A   Clear
4:12 AM 38.7 °F 29.8 °F 31.6 °F 76% 30.32 in 10.0 mi SSE 16.1 mph 21.9 mph N/A   Clear
4:33 AM 38.3 °F 30.5 °F 31.6 °F 77% 30.31 in 10.0 mi SSE 12.7 mph 21.9 mph N/A   Clear
4:53 AM 38.5 °F 31.1 °F 32.0 °F 78% 30.32 in 10.0 mi SSE 11.5 mph 20.7 mph N/A   Clear
5:13 AM 38.3 °F 30.5 °F 31.8 °F 77% 30.32 in 10.0 mi SE 12.7 mph 20.7 mph N/A   Clear
5:33 AM 38.5 °F 29.9 °F 32.0 °F 78% 30.32 in 10.0 mi SE 15.0 mph 25.3 mph N/A   Clear
5:53 AM 38.3 °F 30.1 °F 32.0 °F 78% 30.32 in 10.0 mi SSE 13.8 mph - N/A   Clear
6:13 AM 38.7 °F 30.1 °F 32.0 °F 77% 30.32 in 10.0 mi SSE 15.0 mph 23.0 mph N/A   Clear
6:33 AM 39.2 °F 31.6 °F 32.0 °F 75% 30.30 in 10.0 mi SE 12.7 mph 24.2 mph N/A   Clear
6:53 AM 39.2 °F 30.8 °F 32.0 °F 75% 30.30 in 10.0 mi SE 15.0 mph 21.9 mph N/A   Clear
7:14 AM 39.7 °F 31.5 °F 32.0 °F 74% 30.29 in 10.0 mi SSE 15.0 mph 28.8 mph N/A   Clear
7:34 AM 39.6 °F 31.0 °F 32.0 °F 74% 30.29 in 10.0 mi SE 16.1 mph 21.9 mph N/A   Clear
7:54 AM 40.1 °F 32.0 °F 32.0 °F 73% 30.28 in 10.0 mi SE 15.0 mph 21.9 mph N/A   Clear
8:14 AM 40.3 °F 32.2 °F 32.0 °F 72% 30.29 in 10.0 mi SSE 15.0 mph 21.9 mph N/A   Clear
8:34 AM 40.8 °F 32.9 °F 32.0 °F 71% 30.28 in 10.0 mi SSE 15.0 mph 24.2 mph N/A   Clear
8:54 AM 41.5 °F 33.8 °F 32.4 °F 70% 30.28 in 10.0 mi SE 15.0 mph 26.5 mph N/A   Clear
9:14 AM 42.1 °F 34.2 °F 32.5 °F 69% 30.28 in 10.0 mi SE 16.1 mph 19.6 mph N/A   Clear
9:34 AM 42.8 °F 34.8 °F 32.7 °F 68% 30.28 in 10.0 mi SE 17.3 mph 23.0 mph N/A   Scattered Clouds
9:54 AM 43.3 °F 36.1 °F 32.9 °F 67% 30.27 in 10.0 mi SSE 15.0 mph 24.2 mph N/A   Scattered Clouds
10:15 AM 43.9 °F 35.9 °F 32.9 °F 65% 30.26 in 10.0 mi SSE 18.4 mph 25.3 mph N/A   Clear
10:35 AM 44.2 °F 36.7 °F 32.9 °F 64% 30.26 in 10.0 mi SSE 17.3 mph 23.0 mph N/A   Clear
10:55 AM 44.2 °F 36.7 °F 32.5 °F 63% 30.26 in 10.0 mi SE 17.3 mph 31.1 mph N/A   Clear
11:15 AM 45.1 °F 37.1 °F 32.9 °F 62% 30.25 in 10.0 mi SSE 20.7 mph 28.8 mph N/A   Clear
11:35 AM 47.5 °F - 32.9 °F 57% 30.24 in 10.0 mi SSE 19.6 mph 28.8 mph N/A   Clear
11:55 AM 49.1 °F - 32.9 °F 54% 30.23 in 10.0 mi SSE 19.6 mph 29.9 mph N/A   Clear
12:15 PM 50.0 °F - 32.9 °F 52% 30.23 in 10.0 mi SSE 17.3 mph 28.8 mph N/A   Clear
12:35 PM 52.3 °F - 32.7 °F 47% 30.21 in 10.0 mi SSE 17.3 mph 24.2 mph N/A   Clear
12:55 PM 51.8 °F - 31.8 °F 47% 30.20 in 10.0 mi South 19.6 mph 29.9 mph N/A   Clear
1:16 PM 50.7 °F - 31.6 °F 48% 30.19 in 10.0 mi SSE 17.3 mph 26.5 mph N/A   Clear
1:36 PM 51.3 °F - 31.3 °F 46% 30.18 in 10.0 mi South 19.6 mph 25.3 mph N/A   Clear
1:56 PM 51.6 °F - 31.3 °F 46% 30.18 in 10.0 mi South 18.4 mph 26.5 mph N/A   Clear
2:16 PM 50.7 °F - 31.1 °F 47% 30.19 in 10.0 mi South 20.7 mph 26.5 mph N/A   Clear
2:36 PM 50.7 °F - 31.1 °F 47% 30.17 in 10.0 mi SSE 11.5 mph 26.5 mph N/A   Clear
2:56 PM 51.1 °F - 31.5 °F 47% 30.16 in 10.0 mi SSE 15.0 mph 20.7 mph N/A   Clear
3:16 PM 51.1 °F - 31.8 °F 48% 30.14 in 10.0 mi SE 13.8 mph 23.0 mph N/A   Clear
3:31 PM 50.9 °F - 31.8 °F 48% 30.13 in 10.0 mi SSE 17.3 mph 24.2 mph N/A   Clear
3:51 PM 51.3 °F - 32.0 °F 48% 30.13 in 10.0 mi SSE 20.7 mph 26.5 mph N/A   Clear
4:11 PM 50.9 °F - 31.8 °F 48% 30.13 in 10.0 mi SE 20.7 mph 27.6 mph N/A   Clear
4:31 PM 50.2 °F - 31.6 °F 49% 30.13 in 10.0 mi SSE 19.6 mph 23.0 mph N/A   Clear
4:52 PM 50.0 °F - 31.1 °F 48% 30.13 in 10.0 mi SSE 17.3 mph 26.5 mph N/A   Scattered Clouds
5:12 PM 49.5 °F - 30.6 °F 48% 30.13 in 10.0 mi SSE 15.0 mph 24.2 mph N/A   Clear
5:32 PM 49.3 °F - 30.4 °F 48% 30.13 in 10.0 mi SE 15.0 mph 26.5 mph N/A   Mostly Cloudy
5:52 PM 49.1 °F - 29.8 °F 47% 30.12 in 10.0 mi SSE 17.3 mph 24.2 mph N/A   Mostly Cloudy
6:12 PM 48.7 °F - 29.1 °F 47% 30.12 in 10.0 mi SE 16.1 mph 20.7 mph N/A   Scattered Clouds
6:32 PM 49.1 °F - 28.6 °F 45% 30.12 in 10.0 mi SSE 10.4 mph 21.9 mph N/A   Mostly Cloudy
6:52 PM 48.4 °F - 28.2 °F 46% 30.13 in 10.0 mi SSE 13.8 mph 19.6 mph N/A   Overcast
7:12 PM 48.2 °F - 27.9 °F 45% 30.13 in 10.0 mi SSE 13.8 mph 17.3 mph N/A   Overcast
7:33 PM 48.4 °F - 27.5 °F 44% 30.13 in 10.0 mi SSE 13.8 mph 19.6 mph N/A   Overcast
7:53 PM 48.6 °F - 27.7 °F 44% 30.13 in 10.0 mi SSE 13.8 mph 20.7 mph N/A   Overcast
8:13 PM 48.7 °F - 28.2 °F 45% 30.14 in 10.0 mi SSE 13.8 mph 20.7 mph N/A   Overcast
8:33 PM 48.9 °F - 29.1 °F 46% 30.14 in 10.0 mi South 11.5 mph - N/A   Overcast
8:53 PM 49.1 °F - 29.3 °F 46% 30.14 in 10.0 mi SSE 12.7 mph 20.7 mph N/A   Overcast
9:13 PM 49.1 °F - 30.2 °F 48% 30.14 in 10.0 mi SSE 15.0 mph - N/A   Overcast
9:33 PM 49.3 °F - 30.9 °F 49% 30.14 in 10.0 mi SSE 13.8 mph 20.7 mph N/A   Overcast
9:53 PM 49.3 °F - 31.6 °F 51% 30.14 in 10.0 mi SSE 13.8 mph 21.9 mph N/A   Overcast
10:13 PM 49.3 °F - 32.0 °F 51% 30.15 in 10.0 mi SSE 12.7 mph 18.4 mph N/A   Overcast
10:33 PM 49.1 °F - 32.2 °F 52% 30.14 in 10.0 mi SSE 13.8 mph - N/A   Overcast
10:54 PM 49.3 °F - 32.9 °F 53% 30.14 in 10.0 mi South 10.4 mph - N/A   Overcast
11:14 PM 49.3 °F - 34.0 °F 56% 30.13 in 10.0 mi SSE 10.4 mph 16.1 mph N/A   Overcast
11:34 PM 49.5 °F - 34.9 °F 57% 30.13 in 10.0 mi South 9.2 mph 16.1 mph N/A   Overcast
11:54 PM 49.6 °F - 36.1 °F 60% 30.13 in 10.0 mi SSE 8.1 mph - N/A   Overcast